Kelowna, British Columbia

9:44 PM PST on November 22, 2017 (GMT -0800)
Kelowna

Weather History for CYLW - March, 2013

Change the Weather History Date:

Sunday, March 10, 2013

  Actual Average Record
Temperature  
Mean Temperature 42 °F -  
Max Temperature 55 °F 50 °F 60 °F (2015)
Min Temperature 28 °F 28 °F -4 °F (2009)
Degree Days  
Heating Degree Days 24    
Moisture  
Dew Point 28 °F    
Average Humidity 62    
Maximum Humidity 93    
Minimum Humidity 28    
Precipitation  
Precipitation 0.00 in 0.03 in - ()
Sea Level Pressure  
Sea Level Pressure 30.30 in    
Wind  
Wind Speed 6 mph ()    
Max Wind Speed 17 mph    
Max Gust Speed 32 mph    
Visibility 9.2 miles    
Events      
Averages and records for this station are not official NWS values.
T = Trace of Precipitation, MM = Missing Value Source: Averaged Metar Reports

Daily Weather History Graph

Daily Weather History Graph

Search for Another Location

Airport or City:

Trip Planner

Search our weather history database for the weather conditions in past years. The results will help you decide how hot, cold, wet, or windy it might be!

Date:

Astronomy

Mar. 10, 2013 Rise Set
Actual Time 7:21 AM PDT 6:55 PM PDT
Civil Twilight 6:48 AM PDT 7:27 PM PDT
Nautical Twilight 6:11 AM PDT 8:04 PM PDT
Astronomical Twilight 5:33 AM PDT 8:43 PM PDT
Moon 6:27 AM PDT (3/10) 6:07 PM PDT (3/10)
Length of Visible Light 12h 38m
Length of Day
11h 34m
Waning Crescent, 1% of the Moon is Illuminated
Mar 10
Waning Crescent
Mar 11
New
Mar 19
First Quarter
Mar 27
Full
Apr 2
Last Quarter

Hourly Weather History & Observations

Time (PDT) Temp. Windchill Dew Point Humidity Pressure Visibility Wind Dir Wind Speed Gust Speed Precip Events Conditions
12:00 AM 30.2 °F 25.4 °F 28.4 °F 93% 30.40 in 9.0 mi North 4.6 mph - N/A   Scattered Clouds
3:00 AM 30.2 °F 24.3 °F 28.4 °F 93% 30.40 in 9.0 mi North 5.8 mph - N/A   Mostly Cloudy
4:00 AM 30.2 °F - 28.4 °F 93% 30.40 in 9.0 mi Calm Calm - N/A   Overcast
5:00 AM 32 °F - 29 °F 82% 30.39 in 10 mi NNE 1.2 mph - -   Overcast
6:00 AM 33.8 °F - 30.2 °F 87% 30.39 in 9.0 mi Variable 2.3 mph - N/A   Overcast
7:00 AM 33.8 °F 27.7 °F 30.2 °F 87% 30.37 in 9.0 mi NNE 6.9 mph - N/A   Overcast
8:00 AM 32.0 °F 26.4 °F 30.2 °F 93% 30.37 in 9.0 mi North 5.8 mph - N/A   Scattered Clouds
9:00 AM 35.6 °F 29.9 °F 32.0 °F 87% 30.37 in 9.0 mi North 6.9 mph - N/A   Mostly Cloudy
10:00 AM 37.4 °F - 32.0 °F 81% 30.36 in 9.0 mi Variable 2.3 mph - N/A   Partly Cloudy
11:00 AM 41 °F - 30 °F 53% 30.36 in 10 mi WNW 1.2 mph - -  
11:00 AM 41.0 °F - 30.2 °F 65% 30.36 in 9.0 mi Calm Calm - N/A   Partly Cloudy
12:00 PM 42.8 °F 41.1 °F 30.2 °F 61% 30.33 in 9.0 mi SSW 3.5 mph - N/A   Clear
1:00 PM 44.6 °F 40.7 °F 32.0 °F 61% 30.30 in 9.0 mi South 6.9 mph - N/A   Scattered Clouds
2:00 PM 46.4 °F 42.9 °F 30.2 °F 53% 30.28 in 9.0 mi South 6.9 mph - N/A   Mostly Cloudy
3:00 PM 48.2 °F - 30.2 °F 50% 30.24 in 9.0 mi South 10.4 mph - N/A   Scattered Clouds
4:00 PM 55.4 °F - 28.4 °F 36% 30.21 in 9.0 mi SSW 16.1 mph - N/A   Overcast
5:00 PM 53 °F - 29 °F 28% 30.21 in 10 mi SSW 15.0 mph - -   Overcast
5:00 PM 53.6 °F - 30.2 °F 41% 30.21 in 9.0 mi SSW 15.0 mph - N/A   Overcast
6:00 PM 51.8 °F - 26.6 °F 38% 30.19 in 9.0 mi SW 17.3 mph 24.2 mph N/A   Clear
7:00 PM 48.2 °F - 24.8 °F 40% 30.20 in 9.0 mi SSW 16.1 mph 23.0 mph N/A   Clear
8:00 PM 46.4 °F 39.8 °F 24.8 °F 43% 30.21 in 9.0 mi SSW 16.1 mph 32.2 mph N/A   Partly Cloudy
9:00 PM 46.4 °F 40.7 °F 23.0 °F 40% 30.22 in 9.0 mi SW 12.7 mph 20.7 mph N/A   Scattered Clouds
10:00 PM 42.8 °F 40.1 °F 24.8 °F 49% 30.25 in 9.0 mi SSE 4.6 mph - N/A   Clear
11:00 PM 42 °F - 26 °F 41% 30.27 in 10 mi South 9.2 mph - -   Overcast
11:00 PM 41.0 °F 35.2 °F 26.6 °F 57% 30.27 in 9.0 mi South 9.2 mph - N/A   Overcast
12:00 AM 41.0 °F 37.1 °F 24.8 °F 53% 30.28 in 9.0 mi SE 5.8 mph - N/A   Mostly Cloudy